User: anonymous   Login
Location: Blue Mountain Vista Observatory
(40.6992°N, 75.9422°W)
Time: 10:43:47
(UTC-04:00)
Language:

CZ-4C R/B - Orbit

View from above orbital plane
View from above orbital plane
View from above satellite
View from above satellite

Ground track
Ground track

The orbit data is extracted from the following two-line orbital elements,

1 36416U 10009D   17268.82540556 -.00000072  00000-0  15963-4 0  9997
2 36416  63.4400 354.2406 0396724 356.0885   3.7077 13.69519514378151
Epoch (UTC): 25 September 2017 19:48:35
Eccentricity: 0.0396724
inclination: 63.4400°
perigee height: 708 km
apogee height: 1294 km
right ascension of ascending node: 354.2406°
argument of perigee: 356.0885°
revolutions per day: 13.69519514
mean anomaly at epoch: 3.7077°
orbit number at epoch: 37815

The dashed part of the orbit path shows where the satellite is in the earth's shadow,  

DLR